Location: *
(43.0833°N, 13.0500°E)
Time: 12:58:06
(UTC+00:00)

Cosmos 1633 Rocket - Pass Details

Date: 15 November 2019
Orbit: 608 x 622 km, 82.5° (Epoch: 12 December)

Event Time Altitude Azimuth Distance (km) Brightness Sun altitude
Rises 17:47:53 0° 346° (NNW) 2,900 6.6 -22.5°
Reaches altitude 10° 17:50:09 10° 342° (NNW) 1,992 5.8 -22.9°
Maximum altitude 17:54:25 51° 267° (W) 781 3.9 -23.7°
Drops below altitude 10° 17:58:41 10° 191° (S) 1,983 5.8 -24.5°
Sets 18:00:56 0° 186° (S) 2,886 6.6 -24.9°
